STARLINK-11670, 64237

Orbit data source: Space-Track

STARLINK-11670, 64237 is a payload satellite owned by SpaceX/Seattle (US) in LEO that was launched on Tue, 03 Jun 2025 UTC via an FALCON 9 launch vehicle from the Air Force Eastern Test Range (AFETR). Payload-class satellites include a variety of spacecraft equipped with specific instruments for various scientific and technological missions. These include communications satellites like Starlink; space stations such as the ISS; scientific satellites like the Hubble; Earth observation satellites from companies like Planet Labs, Umbra, and HawkEye 360; GPS; miniature CubeSats for education and research; and military/defense satellites.

Loading next visibility...
Identifier
64237, 2025-119E
Orbit
LEO
Country
Flag of USUS
Related business
Manufacturer
SpaceX/Seattle
Mission
Operational Commercial Communications
Bus & Motor
STARLINK V2MD, Unknown motor
Mass
960 kg wet, ~910 kg dry
Launch date (UTC)
2025-06-03 (1 year ago)
Launch vehicle
FALCON 9
Launch site
Air Force Eastern Test Range (AFETR)
Object type
Payload
Rocket body
Debris
Shape & HBR
Box + 2 Pan, 18.1 m
Radar Cross Section
36.964 m², Large (>1 m²)

Expand to show TLE details & history
Last TLE update: 1 day ago

TLE from 1 day ago
0 STARLINK-11670
1 64237U 25119E   26170.75419344  .00206120  00000-0  15676-2 0  9991
2 64237  42.9998 314.1871 0001445 277.0960  82.9744 15.70880803 61297
Epoch: 2026-06-19T18:06Z
TLE epoch observation values (Epoch: 2026-06-19T18:06:02.313Z)
Latitude
0.00004°
Longitude
134.69887°
Altitude
356.031 km
Speed
7.697 km/s
True Right ascension
20h 56m 44s
True Declination
0° 00' 00"
Sunlit
Object was in full shadow at epoch
Visualization orbit readout
Latitude
Unknown
Longitude
Unknown
Altitude
Unknown
Speed
Unknown
Apparent Right ascension
Unknown
Apparent Declination
Unknown
Sunlit
N/A
Visualization observer readout
Local Sidereal Time
07:12:24
Azimuth
Unknown
Elevation
Unknown
Doppler factor
Unknown
Orbital elements
Apogee altitude
359.334 km
Perigee altitude
357.387 km
Semi-major axis
6,736.497 km
Eccentricity
0.00014
Inclination
42.9998°
RAAN
314.1871°
Arg. of periapsis
277.096°
True anomaly
82.99083°
Mean anomaly
82.9744°
Eccentric anomaly
82.98262°
Mean motion
3.92547 °/min
Orbital period
91.71 mins
BSTAR
0.0015676
Loading maneuver chart data...
Computing Atmospheric mass density...
Loading historical data...
Loading historical data...
Loading historical data...
Loading historical data...
Loading historical data...
Loading historical data...
Loading historical data...

Documentation

Showing up to 5 results
|